Miscellaneous Local Product
Issued by NWS North Platte, NE

Home | Current Version | Previous Version | Text Only | Print | Product List | Glossary On
Versions: 1 2 3 4 5 6 7 8 9 10 11 12 13 14 15 16 17 18 19 20 21 22 23 24 25 26 27 28 29 30 31 32 33 34 35 36 37 38 39 40 41 42 43 44 45 46 47 48 49 50
729
AXUS43 KLBF 210410
MISLBF


WESTERN AND NORTH CENTRAL NEBRASKA HOURLY WEATHER ROUNDUP
NATIONAL WEATHER SERVICE NORTH PLATTE NE
1000 PM CST MON FEB 20 2017

NOTE: "FAIR" INDICATES FEW OR NO CLOUDS BELOW 12,000 FEET WITH NO
SIGNIFICANT WEATHER AND/OR OBSTRUCTIONS TO VISIBILITY.

NOTE: STATIONS NOT REPORTING VARIABLES SUCH AS SKY/WEATHER OR
PRESSURE ARE PROVIDED BY RAWS AND APRS NETWORKS AND ARE NOT UNDER
NATIONAL WEATHER SERVICE QUALITY CONTROL.

...OBSERVATIONS IN AND NEAR THE EASTERN PANHANDLE OF NEBRASKA...

CITY           SKY/WX    TMP DP  RH WIND       PRES   REMARKS
PINE RIDGE     CLEAR     43  31  62 SW8       29.87S
CHADRON        CLOUDY    50  30  46 W8        29.87S
ALLIANCE       CLEAR     37  26  64 W8        29.92S WCI  31
SIDNEY         CLEAR     31  19  61 SW7       29.98F WCI  24
CRESCENT LAKE    N/A     46  23  40 SW3         N/A
$$

...OBSERVATIONS IN NORTHERN NEBRASKA AND FAR SOUTHERN SOUTH DAKOTA...

CITY           SKY/WX    TMP DP  RH WIND       PRES   REMARKS
WINNER         FAIR      45  28  51 S10       29.85F
VALENTINE      CLEAR     36  25  64 SW5       29.88F WCI  32
THEDFORD       CLEAR     45  27  49 S9        29.93S
AINSWORTH      CLEAR     35  30  81 S9        29.89F WCI  28
O`NEILL        CLEAR     39  32  76 SW6       29.92S WCI  34
ORD            CLEAR     33  27  78 SW5       29.94R WCI  29
BROKEN BOW     CLEAR     31  27  85 CALM      29.95S
VALENTINE NWR    N/A     39  27  62 S5          N/A
BUTTE            N/A     45  30  55 S7          N/A
HALSEY           N/A     44  25  46 S5          N/A
CHAMBERS         N/A     35  26  69 CALM        N/A
EWING            N/A     40  34  80 CALM        N/A
$$

...OBSERVATIONS IN SOUTHWEST NEBRASKA AND FAR NORTHEAST COLORADO...

CITY           SKY/WX    TMP DP  RH WIND       PRES   REMARKS
HOLYOKE        FAIR      37  16  41 S10       29.99F WCI  30
IMPERIAL       CLEAR     41  17  38 S5        29.99F
OGALLALA       CLEAR     32  20  60 W5        29.97F WCI  27
NORTH PLATTE   CLEAR     34  24  67 E3        29.96F
MCCOOK         CLEAR     37  23  56 SW9       29.99S WCI  30
LEXINGTON      CLEAR     38  28  66 SE3       29.98S
STAPLETON        N/A     42  25  50 CALM        N/A
GOTHENBURG       N/A     41  28  58 CALM        N/A
CALLAWAY         N/A     43  29  57 S5          N/A
$$

...OBSERVATIONS IN CENTRAL LINCOLN COUNTY AREA...

CITY           SKY/WX    TMP DP  RH WIND       PRES   REMARKS
N.P. AIRPORT   CLEAR     34  24  67 E3        29.96F
N.P. DOWNTOWN    N/A     42  26  53 CALM        N/A
N.P. SOUTHEAST   N/A     40  25  54 CALM        N/A
N.P. HILLCREST   N/A     46  26  45 SE3         N/A
$$

...SOME OBSERVATIONS FROM AROUND THE REGION...

CITY           SKY/WX    TMP DP  RH WIND       PRES   REMARKS
LARAMIE        CLOUDY    36  19  50 S9        30.04R WCI  29
CHEYENNE       CLOUDY    44  16  32 VRB5      30.01R
DENVER         CLOUDY    39  13  34 S9        30.01R WCI  33
AKRON          CLEAR     44  14  29 S9        30.00F
SCOTTSBLUFF    PTCLDY    40  24  53 SE3       29.93F
RAPID CITY     PTCLDY    52  30  43 SW14      29.78S
BISMARCK       PTCLDY    33  30  88 SE6       29.75S WCI  28
PIERRE         PTCLDY    39  30  70 SE8       29.80S WCI  33
SIOUX FALLS    CLEAR     38  37  97 CALM      29.90R
OMAHA          PTCLDY    45  39  79 E3        29.94S
GRAND ISLAND   CLEAR     40  35  83 SW3       29.97S
KANSAS CITY    CLOUDY    57  52  83 SW7       29.92R
WICHITA        PTCLDY    55  44  66 N10       29.94R
OKLAHOMA CITY  PTCLDY    52  50  93 SW3       29.92S
DALLAS         CLEAR     58  55  90 S7        29.90F
AMARILLO       CLEAR     42  15  33 W3        30.09S
DODGE CITY     CLEAR     41  25  53 NW6       30.02S
HAYS           CLEAR     40  31  70 NW8       30.00S WCI  34
GOODLAND       CLOUDY    39  12  33 S8        30.03S WCI  33
$$




USA.gov is the U.S. government's official web portal to all federal, state and local government web resources and services.